Track STARLINK-1153 now! 10-day predictions STARLINK-1153 is classified as:
1 45080U 20006AN 21018.35680069 -.00000035 00000-0 16783-4 0 9992 2 45080 53.0016 49.8026 0001186 94.4054 265.7070 15.05572904 53930